Regional Weather Roundup
Issued by NWS Charleston, SC

Current Version | Previous Version | Graphics & Text | Print | Product List | Glossary On
Versions: 1 2 3 4 5 6 7 8 9 10 11 12 13 14 15 16 17 18 19 20 21 22 23 24 25 26 27 28 29 30 31 32 33 34 35 36 37 38 39 40 41 42 43 44 45 46 47 48 49 50
158
ASUS42 KCHS 232012
RWRCHS

REGIONAL WEATHER ROUNDUP
NATIONAL WEATHER SERVICE CHARLESTON SC
300 PM EST THU NOV 23 2017

NOTE: "FAIR" INDICATES FEW OR NO CLOUDS BELOW 12,000 FEET WITH NO
SIGNIFICANT WEATHER AND/OR OBSTRUCTIONS TO VISIBILITY.

NOT ALL STATIONS ARE QUALITY CONTROLLED. USE DATA WITH CAUTION...
ESPECIALLY DEWPOINT OBSERVATIONS.

SCZ027-030-031-034>040-042>050-232100-
...SOUTHEAST SOUTH CAROLINA...

CITY           SKY/WX    TMP DP  RH WIND       PRES   REMARKS
N CHARLESTON   LGT RAIN  47  46  97 N13       30.01F
WATERFRONT PRK NOT AVBL
JOHNS ISLAND   LGT RAIN  48  48 100 N8        30.00S
PINOPOLIS        N/A     46  45  93 NE7       29.95F
MONCKS CORNER  DRIZZLE   45  43  93 N3        30.03R
SUMMERVILLE    LGT RAIN  45  43  93 N5        30.03S
BEAUFORT MCAS  RAIN      50  50 100 N12       29.98F FOG
BEAUFORT ARPT  RAIN      50  48  93 NE14      29.97F
HILTON HEAD IS RAIN      52  50  93 N12       29.97
WALTERBORO     DRIZZLE   45  43  93 NE6       30.01F
ALLENDALE      FAIR      50  41  71 NE6       30.00F

...SOUTHERN MIDLANDS AND PEE DEE...

CITY           SKY/WX    TMP DP  RH WIND       PRES   REMARKS
GEORGETOWN     DRIZZLE   45  45 100 N5        30.03S
KINGSTREE      FAIR      46  36  66 N5        30.03S
ORANGEBURG     CLOUDY    49  37  63 NE8       30.03S
BARNWELL         N/A     54  41  62 NE7       30.02F
AIKEN          FAIR      54  37  54 NE8       30.05F
MANNING        MOCLDY    46  36  66 MISG      30.03F
COLUMBIA       PTSUNNY   56  37  49 NE6       30.03F
SUMTER         CLOUDY    50  34  53 N7        30.02S
FLORENCE       CLOUDY    49  34  56 NE9       30.05F
MYRTLE BEACH   CLOUDY    48  41  76 N8        30.04S
N MYRTLE BEACH CLOUDY    49  39  68 N10       30.03F

$$

GAZ063-065-086>088-099>101-113>116-118-119-134>141-150-232100-
...SOUTHEAST GEORGIA...

CITY           SKY/WX    TMP DP  RH WIND       PRES   REMARKS
SAVANNAH ARPT  LGT RAIN  51  50  96 NE7       29.96F FOG
HUNTER AAF     LGT RAIN  52  50  93 NE6       29.92F
FORT STEWART   LGT RAIN  51  50  94 N8        29.93F
STATESBORO     CLOUDY    53  44  73 N9        29.97F
SYLVANIA       CLOUDY    52  47  82 NE6       30.00F
CLAXTON        CLOUDY    54  51  91 NW6       29.97F

...CSRA...CENTRAL AND FAR SOUTHEAST GEORGIA...

CITY           SKY/WX    TMP DP  RH WIND       PRES   REMARKS
THOMSON        MOSUNNY   57  38  49 E8        30.06F
AUGUSTA-BUSH   PTSUNNY   58  41  53 NE8       30.00F
AUGUSTA-DANIEL CLOUDY    59  40  49 NE7       30.01F
SWAINSBORO     MOCLDY    55  45  67 N7        29.99F
VIDALIA        CLOUDY    57  48  72 NE5       29.98S
EASTMAN        CLOUDY    62  39  42 N6        29.99F
HAZLEHURST     CLOUDY    56  49  80 NE5       29.95S
ALMA           CLOUDY    55  52  89 VRB3      29.94F FOG
WAYCROSS       CLOUDY    55  52  90 NE6       29.94S
JESUP          CLOUDY    54  52  94 N6        29.95R
BAXLEY         CLOUDY    52  52 100 NE7       29.95S
BRUNSWICK      DRIZZLE   57  54  88 N8        29.92F
SAINT SIMONS   LGT RAIN  61  61 100 NE14G23   29.89F

$$

SCZ027-028-034-036>038-045-046-048>050-GAZ119-141-232100-
...LAKE AND SUPPLEMENTAL COASTAL OBSERVATIONS...

STATION/POSITION TIME  TEMP    WIND        PRES    WAVE   SWELL
                       AIR SEA DIR/SP/G            HT/PER HT/PER/DIR
                 (UTC) (F)     (DEG/KT/KT) (MB)    (FT/S) (FT/S/D)
WINYAH BAY       NOT AVBL
LAKE MURRAY      1920   53      20/  3/  6 1016.6
ACE BASIN NERRS  1845   48      10/  3     1016.0
FORT PULASKI     1936   53 61   40/ 10/ 13 1014.6F
SAPELO ISLAND    1900   57      30/  9     1014.0

$$

ANZ835-935-AMZ111-154-330-350-352-354-370-450-454-472-232100-
...C-MAN AND BUOY OBSERVATIONS...

STATION/POSITION TIME  TEMP    WIND        PRES    WAVE   SWELL
                       AIR SEA DIR/SP/G            HT/PER HT/PER/DIR
                 (UTC) (F)     (DEG/KT/KT) (MB)    (FT/S) (FT/S/D)
BUOY 41004       1950   65      20/ 19/ 23 1014.0F   7/ 9   3/100/ 9
BUOY 41008       1950   64 67   50/ 17/ 21 1012.4F   6/ 5   2/100/ 9
FOLLY BEACH CMAN 1900   51      20/ 11/ 15 1016.5F
CAPERS NEARSHORE 1908   48 61   30/ 16/ 21 1015.7F
FRIPP NEARSHORE  1908   52 62   20/ 12/ 19 1014.7F


STATION/POSITION TIME  TEMP    WIND        PRES    WAVE   SWELL
                       AIR SEA DIR/SP/G            HT/PER HT/PER/DIR
                 (UTC) (F)     (DEG/KT/KT) (MB)    (FT/S) (FT/S/D)
5E ST. MARYS GA  1930      67                N/A     7/ 6   2/100/11
FRYING PAN BUOY  1950   59 72   30/ 19/ 23 1015.5F   6/ 9   3/120/ 9
BUOY 41025       2000   55 72  360/ 16/ 21 1017.4
CAPE LOOKOUT NC  1900           20/ 14/ 19 1017.7F
BUOY 41002       1950   72 76   80/ 14/ 17 1012.8F   7/ 9   7/ 70/ 9
BUOY 41010       NOT AVBL
ST AUGUSTINE FL  2000   67 69   40/ 21/ 23 1010.6F


$$




USA.gov is the U.S. government's official web portal to all federal, state and local government web resources and services.